SQ7RAF-15 Weather Reports


time (UTC)temp
F
wind
direction
speed
knots
gust
knots
rain 1hr
in
rain 24hr
in
rain mn
in
humidity
%
barometer
mb
20260504033521 53 217 0.9 2.6 0.00 0.00 0.00 61 1013.5
20260504033033 53 275 0.9 1.7 0.00 0.00 0.00 61 1013.5
20260504032545 53 283 0.9 2.6 0.00 0.00 0.00 60 1013.5
20260504032026 53 237 0.9 2.6 0.00 0.00 0.00 61 1013.5
20260504031537 53 246 0.9 4.3 0.00 0.00 0.00 60 1013.5
20260504031018 53 342 1.7 4.3 0.00 0.00 0.00 61 1013.5
20260504030601 53 250 0.9 4.3 0.00 0.00 0.00 60 1013.5
20260504030025 53 204 0.9 2.6 0.00 0.00 0.00 60 1013.6
20260504025537 53 287 0.9 1.7 0.00 0.00 0.00 60 1013.6
20260504025038 53 233 0.9 5.2 0.00 0.00 0.00 60 1013.6
20260504024546 53 293 0.9 1.7 0.00 0.00 0.00 60 1013.5
20260504024026 53 222 0.9 2.6 0.00 0.00 0.00 60 1013.5
20260504023537 53 258 0.9 2.6 0.00 0.00 0.00 60 1013.5
20260504023017 53 233 0.9 2.6 0.00 0.00 0.00 60 1013.5
20260504022530 54 317 0.9 1.7 0.00 0.00 0.00 59 1013.5
20260504022041 54 270 0.9 2.6 0.00 0.00 0.00 58 1013.4
20260504021522 54 286 0.9 2.6 0.00 0.00 0.00 58 1013.5
20260504021033 54 180 1.7 5.2 0.00 0.00 0.00 58 1013.6
20260504020545 55 320 0.9 1.7 0.00 0.00 0.00 58 1013.5
20260504020025 55 218 1.7 4.3 0.00 0.00 0.00 58 1013.4
20260504015537 55 137 0.9 2.6 0.00 0.00 0.00 58 1013.5
20260504015049 55 241 1.7 4.3 0.00 0.00 0.00 58 1013.5
20260504014529 55 298 0.9 2.6 0.00 0.00 0.00 58 1013.4
20260504014041 55 193 1.7 5.2 0.00 0.00 0.00 57 1013.6
20260504013521 55 166 1.7 5.2 0.00 0.00 0.00 58 1013.5
20260504013033 55 192 1.7 4.3 0.00 0.00 0.00 58 1013.7
20260504012545 55 240 0.9 2.6 0.00 0.00 0.00 59 1013.6
20260504012025 55 248 0.9 2.6 0.00 0.00 0.00 59 1013.6
20260504011537 55 326 0.9 2.6 0.00 0.00 0.00 58 1013.6
20260504011017 55 295 0.9 2.6 0.00 0.00 0.00 59 1013.6
20260504010529 55 273 0.9 4.3 0.00 0.00 0.00 59 1013.6
20260504010041 55 360 0.9 1.7 0.00 0.00 0.00 59 1013.6
20260504005521 55 316 0.9 1.7 0.00 0.00 0.00 60 1013.8
20260504005033 54 351 0.9 1.7 0.00 0.00 0.00 61 1013.6
20260504004545 54 3 0.9 2.6 0.00 0.00 0.00 62 1013.6
20260504004025 54 348 0.9 0.9 0.00 0.00 0.00 61 1013.6
20260504003537 54 359 0.9 1.7 0.00 0.00 0.00 62 1013.8
20260504003049 54 344 0.0 0.9 0.00 0.00 0.00 62 1013.8
20260504002529 54 333 0.9 0.9 0.00 0.00 0.00 61 1013.8
20260504002041 55 350 0.0 0.9 0.00 0.00 0.00 61 1013.9
20260504001521 55 315 0.9 1.7 0.00 0.00 0.00 60 1013.8
20260504001033 55 292 0.0 1.7 0.00 0.00 0.00 60 1013.9
20260504000546 55 339 0.9 1.7 0.00 0.00 0.00 60 1013.9
20260504000026 55 348 0.9 2.6 0.00 0.00 0.00 60 1013.9
20260503235537 55 9 0.9 2.6 0.00 0.00 0.00 61 1014.0
20260503235049 55 310 0.9 1.7 0.00 0.00 0.00 62 1014.0
20260503234529 55 339 0.0 1.7 0.00 0.00 0.00 62 1014.0
20260503234041 55 345 0.0 0.9 0.00 0.00 0.00 62 1014.0
20260503233521 55 323 0.9 0.9 0.00 0.00 0.00 62 1014.0
20260503233033 55 316 0.9 1.7 0.00 0.00 0.00 63 1014.0
20260503232545 55 338 0.0 0.9 0.00 0.00 0.00 63 1014.0
20260503232025 55 357 0.0 0.9 0.00 0.00 0.00 63 1014.2
20260503231537 56 343 0.0 0.9 0.00 0.00 0.00 61 1014.2
20260503231049 56 326 0.0 0.9 0.00 0.00 0.00 60 1014.2
20260503230529 57 311 0.0 0.9 0.00 0.00 0.00 60 1014.2
20260503230041 57 3 0.0 0.9 0.00 0.00 0.00 59 1014.2
20260503225521 57 338 0.0 0.9 0.00 0.00 0.00 59 1014.1
20260503225033 58 319 0.9 2.6 0.00 0.00 0.00 58 1014.2
20260503224545 58 9 0.0 1.7 0.00 0.00 0.00 58 1014.1
20260503224025 58 341 0.9 1.7 0.00 0.00 0.00 58 1014.1
20260503223537 58 345 0.0 0.9 0.00 0.00 0.00 58 1014.1
20260503223017 58 342 0.0 0.9 0.00 0.00 0.00 58 1014.1
20260503222529 58 356 0.0 0.9 0.00 0.00 0.00 58 1014.2
20260503222041 59 340 0.0 0.9 0.00 0.00 0.00 58 1014.2
20260503221521 59 353 0.0 0.9 0.00 0.00 0.00 57 1014.2
20260503221033 59 316 0.0 0.9 0.00 0.00 0.00 57 1014.2
20260503220545 59 308 0.9 1.7 0.00 0.00 0.00 57 1014.2
20260503220025 60 240 0.0 1.7 0.00 0.00 0.00 56 1014.2
20260503215537 60 326 0.9 0.9 0.00 0.00 0.00 56 1014.4
20260503215017 60 290 0.9 1.7 0.00 0.00 0.00 56 1014.3
20260503214529 60 333 0.0 1.7 0.00 0.00 0.00 55 1014.3
20260503214041 60 284 0.9 2.6 0.00 0.00 0.00 55 1014.3
20260503213521 60 272 0.9 2.6 0.00 0.00 0.00 55 1014.3
20260503213033 60 320 0.9 1.7 0.00 0.00 0.00 56 1014.2
20260503212545 60 220 0.9 5.2 0.00 0.00 0.00 56 1014.2
20260503212025 60 348 0.0 0.9 0.00 0.00 0.00 56 1014.1
20260503211537 60 346 0.0 0.9 0.00 0.00 0.00 56 1014.2
20260503211017 59 339 0.0 0.9 0.00 0.00 0.00 57 1014.2
20260503210529 59 332 0.0 0.9 0.00 0.00 0.00 58 1014.2
20260503210041 59 0.0 0.0 0.00 0.00 0.00 58 1014.2
20260503205521 59 326 0.0 0.9 0.00 0.00 0.00 57 1014.2
20260503205033 59 261 0.0 1.7 0.00 0.00 0.00 58 1014.2
20260503204546 58 0.0 0.0 0.00 0.00 0.00 58 1014.2
20260503204025 59 318 0.0 0.9 0.00 0.00 0.00 59 1014.2
20260503203538 59 317 0.0 0.9 0.00 0.00 0.00 57 1014.3
20260503203017 60 317 0.0 0.9 0.00 0.00 0.00 56 1014.2
20260503202545 60 340 0.0 0.9 0.00 0.00 0.00 56 1014.1
20260503202026 60 312 0.0 0.9 0.00 0.00 0.00 56 1014.2
20260503201537 61 311 0.0 0.9 0.00 0.00 0.00 54 1014.2
20260503201049 62 326 0.0 0.9 0.00 0.00 0.00 53 1014.2
20260503200529 62 347 0.0 0.9 0.00 0.00 0.00 52 1014.2
20260503200026 63 333 0.0 0.9 0.00 0.00 0.00 51 1014.2
20260503195521 64 332 0.0 0.9 0.00 0.00 0.00 50 1014.2
20260503195033 64 351 0.0 0.9 0.00 0.00 0.00 49 1014.3
20260503194529 64 292 0.9 0.9 0.00 0.00 0.00 48 1014.3
20260503194041 65 339 0.0 1.7 0.00 0.00 0.00 48 1014.3
20260503193521 65 334 0.0 0.9 0.00 0.00 0.00 47 1014.3
20260503193017 65 1 0.9 4.3 0.00 0.00 0.00 47 1014.3
20260503192529 65 358 0.0 0.9 0.00 0.00 0.00 46 1014.3
20260503192041 66 311 0.9 1.7 0.00 0.00 0.00 46 1014.4
20260503191521 66 303 0.9 1.7 0.00 0.00 0.00 46 1014.3
20260503191033 66 339 0.0 0.9 0.00 0.00 0.00 46 1014.2
20260503190545 66 298 0.9 1.7 0.00 0.00 0.00 45 1014.2
20260503190025 66 352 0.0 0.9 0.00 0.00 0.00 45 1014.1
20260503185537 67 334 0.0 1.7 0.00 0.00 0.00 45 1014.2
20260503185017 67 35 0.0 0.9 0.00 0.00 0.00 44 1014.1
20260503184529 67 112 0.9 5.2 0.00 0.00 0.00 44 1014.1
20260503183521 67 278 0.9 2.6 0.00 0.00 0.00 44 1014.0
20260503183034 68 315 0.9 1.7 0.00 0.00 0.00 44 1014.0
20260503182545 68 10 0.9 4.3 0.00 0.00 0.00 44 1013.9
20260503182026 68 313 0.9 0.9 0.00 0.00 0.00 44 1013.9
20260503181537 68 334 0.0 0.9 0.00 0.00 0.00 44 1013.8
20260503181018 69 328 0.0 0.9 0.00 0.00 0.00 43 1013.8
20260503180545 70 250 0.0 2.6 0.00 0.00 0.00 42 1013.8
20260503180025 70 273 0.9 2.6 0.00 0.00 0.00 41 1013.8
20260503175537 70 295 0.9 2.6 0.00 0.00 0.00 40 1013.8
20260503175017 71 301 0.9 1.7 0.00 0.00 0.00 40 1013.8
20260503174529 71 313 0.9 1.7 0.00 0.00 0.00 39 1013.8
20260503174041 72 229 0.9 2.6 0.00 0.00 0.00 39 1013.8
20260503173521 72 256 1.7 5.2 0.00 0.00 0.00 38 1013.7
20260503173033 72 211 1.7 4.3 0.00 0.00 0.00 38 1013.6
20260503172545 73 201 1.7 6.1 0.00 0.00 0.00 37 1013.7
20260503172026 73 216 1.7 6.1 0.00 0.00 0.00 37 1013.7
20260503171537 74 136 0.9 5.2 0.00 0.00 0.00 36 1013.7
20260503171018 74 202 2.6 6.1 0.00 0.00 0.00 35 1013.6
20260503170529 74 185 2.6 6.1 0.00 0.00 0.00 35 1013.6
20260503150545 78 163 2.6 8.7 0.00 0.00 0.00 32 1014.0
20260503131033 81 204 2.6 7.8 0.00 0.00 0.00 27 1015.5
20260503130545 80 202 2.6 6.1 0.00 0.00 0.00 27 1015.4
20260503110545 78 201 2.6 5.2 0.00 0.00 0.00 29 1016.6
20260503081537 70 261 1.7 5.2 0.00 0.00 0.00 43 1018.0
20260503081017 70 172 3.5 7.0 0.00 0.00 0.00 44 1018.2
20260503080529 70 175 1.7 4.3 0.00 0.00 0.00 45 1018.1
20260503072529 67 196 2.6 6.1 0.00 0.00 0.00 49 1018.2
20260503072041 67 184 3.5 7.8 0.00 0.00 0.00 49 1018.3
20260503071521 66 257 1.7 5.2 0.00 0.00 0.00 49 1018.3
20260503071033 66 211 2.6 7.0 0.00 0.00 0.00 50 1018.3
20260503070545 65 172 3.5 7.0 0.00 0.00 0.00 49 1018.3
20260503055033 60 194 2.6 7.0 0.00 0.00 0.00 55 1018.2
20260503054546 60 194 1.7 4.3 0.00 0.00 0.00 56 1018.1
20260503054025 59 144 1.7 5.2 0.00 0.00 0.00 57 1018.2
20260503053539 59 101 1.7 5.2 0.00 0.00 0.00 59 1018.2
20260503053017 58 105 1.7 4.3 0.00 0.00 0.00 60 1018.3
20260503052530 57 79 1.7 4.3 0.00 0.00 0.00 61 1018.3
20260503052041 57 113 1.7 5.2 0.00 0.00 0.00 62 1018.3
20260503051523 56 111 1.7 2.6 0.00 0.00 0.00 63 1018.3
20260503051033 55 142 1.7 2.6 0.00 0.00 0.00 64 1018.3
20260503050545 55 93 1.7 5.2 0.00 0.00 0.00 65 1018.4
20260503050041 54 120 2.6 5.2 0.00 0.00 0.00 66 1018.4
20260503045521 54 126 1.7 2.6 0.00 0.00 0.00 66 1018.4
20260503045033 54 49 0.9 2.6 0.00 0.00 0.00 67 1018.4
20260503044545 53 65 1.7 2.6 0.00 0.00 0.00 69 1018.5
20260503044025 51 35 0.9 1.7 0.00 0.00 0.00 73 1018.5
20260503043537 49 343 0.9 1.7 0.00 0.00 0.00 77 1018.5
20260503043017 48 336 0.9 1.7 0.00 0.00 0.00 79 1018.5
20260503042531 46 79 0.9 1.7 0.00 0.00 0.00 82 1018.6
20260503042041 45 340 0.0 0.9 0.00 0.00 0.00 84 1018.6
20260503041522 44 344 0.0 0.9 0.00 0.00 0.00 87 1018.6
20260503041033 43 331 0.0 0.9 0.00 0.00 0.00 88 1018.6
20260503040546 42 329 0.0 0.9 0.00 0.00 0.00 89 1018.6
20260503040026 41 336 0.0 0.9 0.00 0.00 0.00 89 1018.6
20260503035537 41 340 0.0 0.9 0.00 0.00 0.00 89 1018.7
20260503035017 41 334 0.0 0.9 0.00 0.00 0.00 89 1018.6
20260503034529 41 0.0 0.0 0.00 0.00 0.00 89 1018.6
20260503034033 41 346 0.0 0.9 0.00 0.00 0.00 89 1018.6